When you browse on this site, cookies collect data to enhance your experience and personalize the content and advertising you see.
Visit our Privacy Policy to learn more. By continuing to use the site, you agree to this use of cookies and data.
  • In Netherlands
  • List of Countries
  • For 7 days
  • Water Temperature
  • Satellite Maps
  • Weather Map
  • Weather Widgets
  • user-avatar
    Login

    Hourly Weather Oktyabrskoe

    Today, 16 February, Saturday

    Time Temperature Precipitation Wind Pressure Humidity
    00:00 +1°C° 0.1 mm 1 mps 704 mmHg 90%
    01:00 +1°C° 0 mm 1 mps 703 mmHg 89%
    02:00 0°C° 0 mm 0 mps 703 mmHg 88%
    03:00 0°C° 0 mm 0 mps 703 mmHg 87%
    04:00 0°C° 0 mm 0 mps 703 mmHg 87%
    05:00 0°C° 0 mm 0 mps 703 mmHg 87%
    06:00 -1°C° 0 mm 0 mps 703 mmHg 87%
    07:00 0°C° 0 mm 0 mps 703 mmHg 81%
    08:00 +2°C° 0 mm 1 mps 703 mmHg 76%
    09:00 +3°C° 0 mm 1 mps 703 mmHg 71%
    10:00 +5°C° 0 mm 1 mps 703 mmHg 65%
    11:00 +6°C° 0 mm 1 mps 703 mmHg 59%
    12:00 +6°C° 0 mm 2 mps 702 mmHg 53%
    13:00 +6°C° 0 mm 2 mps 702 mmHg 51%
    14:00 +6°C° 0 mm 2 mps 702 mmHg 50%
    15:00 +7°C° 0 mm 2 mps 702 mmHg 48%
    16:00 +6°C° 0 mm 1 mps 702 mmHg 55%
    17:00 +5°C° 0 mm 1 mps 702 mmHg 62%
    18:00 +4°C° 0 mm 1 mps 702 mmHg 69%
    19:00 +4°C° 0.1 mm 1 mps 702 mmHg 70%
    20:00 +2°C° 0.1 mm 2 mps 703 mmHg 72%
    21:00 +2°C° 0.1 mm 2 mps 703 mmHg 73%
    22:00 +1°C° 0.6 mm 2 mps 703 mmHg 78%
    23:00 +1°C° 0.6 mm 1 mps 703 mmHg 83%

    Tomorrow, 17 February, Sunday

    Time Temperature Precipitation Wind Pressure Humidity
    00:00 +1°C° 0.6 mm 1 mps 703 mmHg 88%
    01:00 +1°C° 0.5 mm 1 mps 703 mmHg 86%
    02:00 +1°C° 0.5 mm 1 mps 703 mmHg 85%
    03:00 +1°C° 0.5 mm 1 mps 703 mmHg 83%
    04:00 +1°C° 0.2 mm 1 mps 703 mmHg 82%
    05:00 +1°C° 0.2 mm 1 mps 703 mmHg 82%
    06:00 +1°C° 0.2 mm 1 mps 703 mmHg 81%
    07:00 +2°C° 0 mm 1 mps 703 mmHg 76%
    08:00 +2°C° 0 mm 1 mps 703 mmHg 72%
    09:00 +3°C° 0 mm 1 mps 704 mmHg 68%
    10:00 +4°C° 0.1 mm 1 mps 703 mmHg 67%
    11:00 +5°C° 0.1 mm 1 mps 703 mmHg 66%
    12:00 +5°C° 0.1 mm 1 mps 703 mmHg 64%
    13:00 +6°C° 0.1 mm 1 mps 703 mmHg 62%
    14:00 +7°C° 0.1 mm 1 mps 703 mmHg 59%
    15:00 +7°C° 0.1 mm 2 mps 702 mmHg 56%
    16:00 +6°C° 0 mm 2 mps 702 mmHg 55%
    17:00 +5°C° 0 mm 2 mps 702 mmHg 54%
    18:00 +3°C° 0 mm 2 mps 702 mmHg 53%
    19:00 +4°C° 0 mm 2 mps 702 mmHg 48%
    20:00 +4°C° 0 mm 2 mps 702 mmHg 43%
    21:00 +3°C° 0 mm 3 mps 702 mmHg 38%
    22:00 +3°C° 0 mm 3 mps 702 mmHg 39%
    23:00 +4°C° 0 mm 3 mps 702 mmHg 40%

    Day after tomorrow, 18 February, Monday

    Time Temperature Precipitation Wind Pressure Humidity
    00:00 +5°C° 0 mm 3 mps 702 mmHg 41%
    01:00 +5°C° 0 mm 2 mps 702 mmHg 44%
    02:00 +5°C° 0 mm 2 mps 701 mmHg 46%
    03:00 +5°C° 0 mm 2 mps 701 mmHg 49%
    04:00 +5°C° 0 mm 2 mps 701 mmHg 49%
    05:00 +4°C° 0 mm 2 mps 700 mmHg 48%
    06:00 +5°C° 0 mm 1 mps 700 mmHg 48%
    07:00 +6°C° 0 mm 1 mps 700 mmHg 49%
    08:00 +7°C° 0 mm 1 mps 700 mmHg 50%
    09:00 +8°C° 0 mm 1 mps 700 mmHg 50%
    10:00 +7°C° 0 mm 2 mps 700 mmHg 52%
    11:00 +8°C° 0 mm 2 mps 699 mmHg 53%
    12:00 +8°C° 0 mm 3 mps 699 mmHg 55%
    13:00 +8°C° 0 mm 2 mps 699 mmHg 56%
    14:00 +8°C° 0 mm 2 mps 698 mmHg 56%
    15:00 +8°C° 0 mm 2 mps 698 mmHg 57%
    16:00 +7°C° 0.7 mm 2 mps 698 mmHg 65%
    17:00 +6°C° 0.7 mm 2 mps 699 mmHg 72%
    18:00 +5°C° 0.7 mm 1 mps 699 mmHg 79%
    19:00 +4°C° 1.5 mm 2 mps 699 mmHg 84%
    20:00 +3°C° 1.5 mm 2 mps 700 mmHg 88%
    21:00 +1°C° 1.5 mm 3 mps 700 mmHg 92%
    22:00 0°C° 0.8 mm 3 mps 700 mmHg 93%
    23:00 -1°C° 0.8 mm 2 mps 701 mmHg 94%

    19 February, Tuesday

    Time Temperature Precipitation Wind Pressure Humidity
    00:00 -2°C° 0.8 mm 2 mps 701 mmHg 95%
    01:00 -3°C° 0.3 mm 2 mps 701 mmHg 93%
    02:00 -3°C° 0.3 mm 2 mps 701 mmHg 92%
    03:00 -3°C° 0.3 mm 2 mps 702 mmHg 90%
    04:00 -4°C° 0.1 mm 2 mps 702 mmHg 89%
    05:00 -4°C° 0.1 mm 2 mps 703 mmHg 89%
    06:00 -4°C° 0.1 mm 2 mps 703 mmHg 88%
    07:00 -4°C° 0.1 mm 2 mps 704 mmHg 84%
    08:00 -4°C° 0.1 mm 2 mps 704 mmHg 80%
    09:00 -3°C° 0.1 mm 2 mps 705 mmHg 76%
    10:00 -3°C° 0 mm 2 mps 706 mmHg 72%
    11:00 -2°C° 0 mm 2 mps 706 mmHg 68%
    12:00 -1°C° 0 mm 2 mps 706 mmHg 64%
    13:00 -1°C° 0 mm 2 mps 707 mmHg 62%
    14:00 -1°C° 0 mm 2 mps 707 mmHg 61%
    15:00 +1°C° 0 mm 2 mps 707 mmHg 59%
    16:00 +1°C° 0 mm 1 mps 708 mmHg 61%
    17:00 -1°C° 0 mm 1 mps 708 mmHg 64%
    18:00 -2°C° 0 mm 1 mps 709 mmHg 66%
    19:00 -2°C° 0 mm 1 mps 709 mmHg 63%
    20:00 -2°C° 0 mm 1 mps 710 mmHg 60%
    21:00 -2°C° 0 mm 1 mps 710 mmHg 57%
    22:00 -2°C° 0 mm 1 mps 710 mmHg 56%
    23:00 -2°C° 0 mm 1 mps 710 mmHg 55%

    20 February, Wednesday

    Time Temperature Precipitation Wind Pressure Humidity
    00:00 -2°C° 0 mm 1 mps 710 mmHg 54%
    01:00 -2°C° 0 mm 1 mps 710 mmHg 53%
    02:00 -2°C° 0 mm 1 mps 710 mmHg 51%
    03:00 -4°C° 0 mm 2 mps 710 mmHg 50%
    04:00 -4°C° 0 mm 2 mps 710 mmHg 49%
    05:00 -4°C° 0 mm 2 mps 710 mmHg 48%
    06:00 -4°C° 0 mm 2 mps 710 mmHg 48%
    07:00 0°C° 0 mm 1 mps 710 mmHg 48%
    08:00 +1°C° 0 mm 1 mps 710 mmHg 48%
    09:00 +3°C° 0 mm 1 mps 710 mmHg 48%
    10:00 +4°C° 0 mm 1 mps 710 mmHg 50%
    11:00 +4°C° 0 mm 2 mps 709 mmHg 51%
    12:00 +5°C° 0 mm 2 mps 709 mmHg 53%
    13:00 +5°C° 0 mm 2 mps 709 mmHg 55%
    14:00 +5°C° 0 mm 2 mps 708 mmHg 57%
    15:00 +5°C° 0 mm 2 mps 708 mmHg 59%
    16:00 +3°C° 0 mm 2 mps 708 mmHg 62%
    17:00 +3°C° 0 mm 1 mps 708 mmHg 66%
    18:00 +1°C° 0 mm 1 mps 708 mmHg 70%
    19:00 +1°C° 0 mm 1 mps 708 mmHg 66%
    20:00 +1°C° 0 mm 1 mps 708 mmHg 62%
    21:00 +1°C° 0 mm 1 mps 708 mmHg 58%
    22:00 +1°C° 0 mm 1 mps 708 mmHg 56%
    23:00 +1°C° 0 mm 1 mps 708 mmHg 55%

    21 February, Thursday

    Time Temperature Precipitation Wind Pressure Humidity
    00:00 +1°C° 0 mm 1 mps 708 mmHg 54%
    01:00 +1°C° 0 mm 1 mps 708 mmHg 54%
    02:00 +1°C° 0 mm 1 mps 708 mmHg 54%
    03:00 +1°C° 0 mm 1 mps 707 mmHg 54%
    04:00 +1°C° 0 mm 1 mps 707 mmHg 54%
    05:00 0°C° 0 mm 1 mps 707 mmHg 54%
    06:00 0°C° 0 mm 1 mps 707 mmHg 54%
    07:00 +2°C° 0 mm 1 mps 707 mmHg 52%
    08:00 +3°C° 0 mm 1 mps 707 mmHg 51%
    09:00 +4°C° 0 mm 1 mps 707 mmHg 49%
    10:00 +5°C° 0 mm 1 mps 707 mmHg 50%
    11:00 +6°C° 0 mm 1 mps 706 mmHg 51%
    12:00 +7°C° 0 mm 1 mps 706 mmHg 52%
    13:00 +7°C° 0 mm 1 mps 706 mmHg 53%
    14:00 +7°C° 0 mm 1 mps 705 mmHg 54%
    15:00 +7°C° 0 mm 1 mps 705 mmHg 55%
    16:00 +5°C° 0 mm 1 mps 705 mmHg 59%
    17:00 +4°C° 0 mm 1 mps 705 mmHg 63%
    18:00 +2°C° 0 mm 0 mps 705 mmHg 67%
    19:00 +2°C° 0 mm 0 mps 705 mmHg 65%
    20:00 +2°C° 0 mm 1 mps 705 mmHg 64%
    21:00 +2°C° 0 mm 1 mps 706 mmHg 62%
    22:00 +2°C° 0 mm 1 mps 705 mmHg 61%
    23:00 +2°C° 0 mm 1 mps 705 mmHg 60%
    Show more